星链-2111 (STARLINK-2111 )

导读 | 豆包AI

STARLINK-2111是美国太空探索技术公司(SpaceX)于2021年1月20日发射的星链(Starlink)系列卫星,星链项目旨在通过近地轨道卫星星座,为全球提供高速低延迟宽带互联网服务,尤其覆盖偏远和农村地区。该卫星属于SpaceX大规模星座组网计划的一部分,助力星链实现全球互联网覆盖的战略目标,推动太空互联网基础设施建设。

基本信息
目录编号:
47390
目录名称:
STARLINK-2111
国际标识:
2021-005AT
轨道中心:
EARTH
卫星名称:
星链-2111
卫星全名:
星链-2111 (STARLINK-2111 )
卫星状态:
在轨 (已飞行1926 天)
发射日期:
2021-01-20 UTC
国别 :
美国 (US)
星等 :
--
轨道信息
数据来源 国际轨道数据 AOE轨道数据
星历时间 2026-04-30T12:09:55+0800
6小时前
查看轨道信息
2026-04-28T07:00:00+0800
2天前
查看轨道信息
半长轴 6848.876km 6848.835km
偏心率 0.0001338 0.0002188
轨道倾角 53.161° 53.161°
近地点辐角 86.344° 62.974°
升交点赤经 186.995° 197.310°
平近点角 273.771° 315.440°
近地点 469.822km 469.199km
远地点 471.656km 472.197km
周期 94.013分钟 94.012分钟
每日圈数 15.317004 15.317143
详细信息
固有亮度:
5
最大亮度:
2.5
卫星平台:
Starlink V1.0
覆盖范围:
全球
运营商:
太空探索技术公司
运营商所在国:
美国
制造商(研发单位):
太空探索技术公司
制造商所在国:
美国
使用方式:
暂无
卫星简介
星链(Starlink)计划是由太空探索技术公司(SpaceX)提出的一个巨型低轨卫星互联网星座项目,计划在2019年至2024年间在太空搭建由约1.2万颗卫星组成的“星链”网络,其中1584颗将部署在地球上空550千米处的近地轨道,并从2020年开始工作。该卫星仍在工作。
2D轨道图
3D轨道图
轨道高度分析图
轨道倾角分析图
轨道综合分析图
查看轨道综合分析图